Content
SEND FEEDBACK

Daily
Averages
Monthly
Summary
United Kingdom

NEWTOWNNARDS, NORTHERN IRELAND


Home > Europe > United Kingdom > Northern Ireland
Elevation: 112 feet     Latitude: 54 40N     Longitude: 005 35W

WEATHER
 
SELECT A DAY
Number of Records: 194,494;   Date Range: 7/1/96 - 11/25/14
 
SHARE

PRINT THIS DATA

[ ← Previous Day ]
WEATHER ALMANAC - JANUARY 19, 2013
[ Next Day → ]
[ °C ]   °F
Weather ElementAverageHighLow
Temperature35.8 °F37.4 °F (7:50 am)33.8 °F (4:50 pm)
Dewpoint31.3 °F33.8 °F (7:50 pm)30.2 °F (6:50 am)
Humidity84.1 %100 % (7:50 pm)75 % (7:50 am)
Barometer29.58 in29.65 in (7:20 pm)29.50 in (6:50 am)
Wind Speed9.9 mph15 mph (6:50 am)
Weather ElementAverage
Visibility5.9 mi
Wind DirectionE (89.7 °)

Weather ElementTotal
Precipitation---
Heating Degree Days29.4 (Base 65)
Averaged from 29 records on January 19, 2013
WEATHER CONDITIONS BREAKOUT
WIND DIRECTION BREAKOUT
WEATHER BY HOUR - JANUARY 19, 2013
[ °C ]   °F
Local TimeTemperatureDewpointHumidityBarometerVisibilityWind DirectionWind SpeedGust SpeedPrecipitationEventsConditions
6:50 AM35.6 °F30.2 °F81 %29.50 in6.2 miESE (110°)15.0 mphSnowLight Snow
7:20 AM35.6 °F30.2 °F81 %29.50 in6.2 miEast (90°)12.7 mphRain-SnowLight Rain
7:50 AM37.4 °F30.2 °F75 %29.50 in6.2 miEast (100°)13.8 mphRain-SnowLight Rain
8:20 AM37.4 °F30.2 °F75 %29.53 in6.2 miESE (110°)12.7 mphRain-SnowLight Rain
8:50 AM37.4 °F30.2 °F75 %29.53 in5.6 miESE (110°)12.7 mphMostly Cloudy
9:20 AM37.4 °F30.2 °F75 %29.56 in5.6 miEast (100°)9.2 mphMostly Cloudy
9:50 AM35.6 °F32.0 °F87 %29.56 in5.6 miEast (100°)10.4 mphMostly Cloudy
10:20 AM35.6 °F32.0 °F87 %29.56 in5.6 miEast (100°)6.9 mphRainLight Rain
10:50 AM35.6 °F32.0 °F87 %29.59 in6.2 miEast (100°)6.9 mphRainLight Rain
11:20 AM35.6 °F32.0 °F87 %29.59 in6.2 miEast (100°)10.4 mphMostly Cloudy
11:50 AM35.6 °F32.0 °F87 %29.59 in6.2 miEast (100°)10.4 mphMostly Cloudy
12:20 PM35.6 °F32.0 °F87 %29.59 in6.2 miEast (90°)11.5 mphMostly Cloudy
12:50 PM37.4 °F32.0 °F81 %29.56 in6.2 miEast (100°)9.2 mphMostly Cloudy
1:20 PM37.4 °F32.0 °F81 %29.56 in6.2 miEast (100°)8.1 mphMostly Cloudy
1:50 PM37.4 °F30.2 °F75 %29.56 in6.2 miEast (100°)9.2 mphMostly Cloudy
2:20 PM37.4 °F30.2 °F75 %29.59 in6.2 miEast (100°)8.1 mphMostly Cloudy
2:50 PM37.4 °F30.2 °F75 %29.59 in6.2 miEast (80°)8.1 mphMostly Cloudy
3:20 PM37.4 °F30.2 °F75 %29.59 in6.2 miEast (80°)9.2 mphMostly Cloudy
3:50 PM37.4 °F30.2 °F75 %29.59 in6.2 miEast (90°)8.1 mphRainLight Rain Showers
4:20 PM35.6 °F30.2 °F81 %29.62 in6.2 miEast (80°)6.9 mphMostly Cloudy
4:50 PM33.8 °F32.0 °F93 %29.62 in6.2 miEast (90°)9.2 mphSnowLight Snow Grains
5:20 PM33.8 °F32.0 °F93 %29.62 in6.2 miNE (50°)9.2 mphSnowLight Snow Grains
5:50 PM35.6 °F32.0 °F87 %29.62 in6.2 miENE (70°)11.5 mphMostly Cloudy
6:20 PM33.8 °F32.0 °F93 %29.62 in6.2 miENE (70°)12.7 mphSnowLight Snow Showers
6:50 PM33.8 °F32.0 °F93 %29.62 in6.2 miEast (80°)10.4 mphRain-SnowLight Rain Showers
7:20 PM33.8 °F32.0 °F93 %29.65 in5.0 miEast (80°)11.5 mphRain-SnowLight Snow Showers
7:50 PM33.8 °F33.8 °F100 %29.65 in5.0 miENE (60°)6.9 mphRain-SnowLight Snow Showers
8:20 PM33.8 °F32.0 °F93 %29.65 in3.1 miEast (80°)10.4 mphSnowLight Snow Showers
8:50 PM33.8 °F32.0 °F93 %29.65 in6.2 miEast (80°)6.9 mphMostly Cloudy
Hourly data recorded from EGAC, located miles away from Newtownnards, Northern Ireland







STORIES FROM OUR PARTNERS